Location: Donzy-le-Pr�
(47.3659°N, 3.1107°E)
Time: 16:45:37
(UTC+00:00)

Cosmos 1666 - Pass Details

Date: 03 March 2021
Orbit: 497 x 518 km, 82.5° (Epoch: 22 April)

Event Time Altitude Azimuth Distance (km) Brightness Sun altitude
Rises 18:28:34 0° 153° (SSE) 2,573 6.0 -9.7°
Reaches altitude 10° 18:31:02 10° 137° (SE) 1,697 4.9 -10.1°
Maximum altitude 18:33:48 20° 88° (E) 1,196 3.9 -10.6°
Drops below altitude 10° 18:36:36 10° 40° (NE) 1,713 5.0 -11.1°
Sets 18:39:07 0° 23° (NNE) 2,607 6.1 -11.5°
